Location: Street
(51.1247°N, 2.7429°W)
Time: 03:18:01
(UTC+00:00)

Transit 2A Rocket - Pass Details

Date: 29 November 2020
Orbit: 592 x 911 km, 66.7° (Epoch: 16 January)

Event Time Altitude Azimuth Distance (km) Brightness Sun altitude
Exits shadow 03:39:45 15° 28° (NNE) 2,039 7.5 -38.3°
Drops below altitude 10° 03:40:38 10° 31° (NNE) 2,350 7.9 -38.2°
Sets 03:43:03 0° 38° (NE) 3,229 8.8 -37.8°
